This is the latest recevied weather packets stored in our database for station/object KC5TIL-3. If no packets are shown the sender has not sent any weather packets the latest 10 day(s).
| Time | Temp. | Humidity | Pressure | Rain* | Wind** | Luminosity | Snow |
|---|---|---|---|---|---|---|---|
| 1788086447 | 27.78° C | 35% | 1012.8 hPa | 0 mm | 2.68 m/s, 170° | - | - |
| 1788086149 | 27.78° C | 34% | 1012.8 hPa | 0 mm | 4.02 m/s, 210° | - | - |
| 1788085851 | 27.78° C | 34% | 1011.8 hPa | 0 mm | 3.58 m/s, 200° | - | - |
| 1788085550 | 28.33° C | 34% | 1011.8 hPa | 0 mm | 3.13 m/s, 212° | - | - |
| 1788085251 | 28.33° C | 33% | 1011.8 hPa | 0 mm | 3.58 m/s, 191° | - | - |
| 1788084953 | 28.33° C | 33% | 1011.8 hPa | 0 mm | 3.58 m/s, 219° | - | - |
| 1788084652 | 28.33° C | 33% | 1011.8 hPa | 0 mm | 3.13 m/s, 235° | - | - |
| 1788084354 | 27.78° C | 32% | 1011.8 hPa | 0 mm | 2.24 m/s, 213° | - | - |
| 1788084056 | 27.78° C | 32% | 1011.8 hPa | 0 mm | 3.13 m/s, 212° | - | - |
| 1788083754 | 28.33° C | 32% | 1011.8 hPa | 0 mm | 4.02 m/s, 221° | - | - |
| 1788083456 | 28.33° C | 32% | 1011.8 hPa | 0 mm | 2.68 m/s, 171° | - | - |
| 1788083154 | 28.33° C | 31% | 1011.8 hPa | 0 mm | 3.13 m/s, 209° | - | - |
| 1788082852 | 28.33° C | 31% | 1011.8 hPa | 0 mm | 3.13 m/s, 207° | - | - |
| 1788082554 | 28.33° C | 31% | 1011.8 hPa | 0 mm | 3.13 m/s, 226° | - | - |
| 1788082256 | 28.33° C | 30% | 1011.8 hPa | 0 mm | 3.58 m/s, 200° | - | - |
| 1788081955 | 28.33° C | 30% | 1011.8 hPa | 0 mm | 4.47 m/s, 205° | - | - |
| 1788081656 | 28.33° C | 30% | 1011.8 hPa | 0 mm | 3.58 m/s, 203° | - | - |
| 1788081354 | 28.33° C | 29% | 1011.8 hPa | 0 mm | 3.13 m/s, 228° | - | - |
| 1788081048 | 28.33° C | 29% | 1011.8 hPa | 0 mm | 3.13 m/s, 160° | - | - |
| 1788080750 | 28.33° C | 29% | 1011.8 hPa | 0 mm | 3.13 m/s, 214° | - | - |
| 1788080452 | 28.33° C | 29% | 1011.8 hPa | 0 mm | 3.58 m/s, 200° | - | - |
| 1788080150 | 28.33° C | 29% | 1011.8 hPa | 0 mm | 3.58 m/s, 194° | - | - |
| 1788079847 | 28.89° C | 29% | 1011.8 hPa | 0 mm | 4.02 m/s, 211° | - | - |
| 1788079544 | 28.89° C | 29% | 1011.8 hPa | 0 mm | 4.02 m/s, 216° | - | - |
| 1788079243 | 28.89° C | 28% | 1011.8 hPa | 0 mm | 3.13 m/s, 220° | - | - |
* Rain latest hour (hover to see other rain measurements)
** Current wind speed in m/s (hover to see current wind gust speed)